Regional Weather Roundup
Issued by NWS Charleston, SC

Current Version | Previous Version | Text Only | Print | Product List | Glossary Off
Versions: 1 2 3 4 5 6 7 8 9 10 11 12 13 14 15 16 17 18 19 20 21 22 23 24 25 26 27 28 29 30 31 32 33 34 35 36 37 38 39 40 41 42 43 44 45 46 47 48 49 50

000
ASUS42 KCHS 221227
RWRCHS

REGIONAL WEATHER ROUNDUP
NATIONAL WEATHER SERVICE CHARLESTON SC
800 AM EDT SAT JUL 22 2017

NOTE: "FAIR" INDICATES FEW OR NO CLOUDS BELOW 12,000 FEET WITH NO
SIGNIFICANT WEATHER AND/OR OBSTRUCTIONS TO VISIBILITY.

NOT ALL STATIONS ARE QUALITY CONTROLLED. USE DATA WITH CAUTION...
ESPECIALLY DEWPOINT OBSERVATIONS.

SCZ027-030-031-034>040-042>050-221300-
...SOUTHEAST SOUTH CAROLINA...

CITY           SKY/WX    TMP DP  RH WIND       PRES   REMARKS
N CHARLESTON   MOSUNNY   79  76  90 SW3       30.03R
6HR MIN TEMP:  75; 6HR MAX TEMP:  79;

WATERFRONT PRK   N/A     81  77  88 VRB2      30.00R
JOHNS ISLAND   FAIR      84  79  84 CALM      30.04R HX  96
PINOPOLIS        N/A     79  77  94 SW5       29.95R
MONCKS CORNER  FAIR      77  75  94 SW6       30.04R
SUMMERVILLE    FAIR      77  73  88 SW5       30.05R
BEAUFORT MCAS  SUNNY     78  75  90 W3        30.04R
6HR MIN TEMP:  75; 6HR MAX TEMP:  80;

BEAUFORT ARPT  FAIR      79  72  78 SW3       30.04R
HILTON HEAD IS SUNNY     79  73  83 CALM      30.05R
WALTERBORO     SUNNY     77  72  83 CALM      30.05R
ALLENDALE      NOT AVBL

...SOUTHERN MIDLANDS AND PEE DEE...

CITY           SKY/WX    TMP DP  RH WIND       PRES   REMARKS
GEORGETOWN     FAIR      79  77  94 SW5       30.04R
KINGSTREE      FAIR      79  73  83 S6        30.04R
ORANGEBURG     SUNNY     75  72  90 SW3       30.04R
6HR MIN TEMP:  72; 6HR MAX TEMP:  75;

BARNWELL       FAIR      77  75  94 CALM      30.05R
AIKEN          FAIR      73  72  94 SW3       30.08R
MANNING        FAIR      79  77  94 W14       30.04R
COLUMBIA       MOSUNNY   76  71  85 SW5       30.02R
6HR MIN TEMP:  74; 6HR MAX TEMP:  78;

SUMTER         SUNNY     76  73  90 SW7       30.00R
6HR MIN TEMP:  74; 6HR MAX TEMP:  78;

FLORENCE       SUNNY     77  75  93 SW7       30.01R
6HR MIN TEMP:  75; 6HR MAX TEMP:  78;

MYRTLE BEACH   SUNNY     81  75  83 SW7       30.04R
N MYRTLE BEACH SUNNY     81  75  82 SW6       30.02R
6HR MIN TEMP:  77; 6HR MAX TEMP:  81;


$$

GAZ063-065-086>088-099>101-113>116-118-119-134>141-150-221300-
...SOUTHEAST GEORGIA...

CITY           SKY/WX    TMP DP  RH WIND       PRES   REMARKS
SAVANNAH ARPT  MOSUNNY   75  72  90 SW5       30.04R
HUNTER AAF     SUNNY     76  73  90 SW5       30.02R
6HR MIN TEMP:  72; 6HR MAX TEMP:  76;

FORT STEWART   SUNNY     74  72  93 CALM      30.03R
6HR MIN TEMP:  72; 6HR MAX TEMP:  74;

STATESBORO     SUNNY     77  77 100 W6        30.05R
SYLVANIA       SUNNY     75  74  96 CALM      30.06R
CLAXTON        FAIR      76  74  92 CALM      30.05R

...CSRA...CENTRAL AND FAR SOUTHEAST GEORGIA...

CITY           SKY/WX    TMP DP  RH WIND       PRES   REMARKS
THOMSON        SUNNY     74  71  88 W5        30.09S
AUGUSTA-BUSH   SUNNY     76  73  91 CALM      30.03R
6HR MIN TEMP:  72; 6HR MAX TEMP:  76;

AUGUSTA-DANIEL SUNNY     75  69  81 SW6       30.04R
SWAINSBORO     FAIR      73  73 100 SW3       30.06S
VIDALIA        SUNNY     75  73  94 SW3       30.07R
EASTMAN        CLOUDY    76  76 100 SW5       30.09R
HAZLEHURST     FAIR      76  76  99 SW3       30.05R
ALMA           SUNNY     73  71  93 SW5       30.06R
6HR MIN TEMP:  71; 6HR MAX TEMP:  74;

WAYCROSS       SUNNY     78  78 100 SW5       30.07R
JESUP          NOT AVBL
BAXLEY         FAIR      73  73 100 SW6       30.06R
BRUNSWICK      SUNNY     77  73  88 SW7       30.06R
SAINT SIMONS   SUNNY     79  74  84 W7        30.05R
6HR MIN TEMP:  75; 6HR MAX TEMP:  79;


$$

SCZ027-028-034-036>038-045-046-048>050-GAZ119-141-221300-
...LAKE AND SUPPLEMENTAL COASTAL OBSERVATIONS...

STATION/POSITION TIME  TEMP    WIND        PRES    WAVE   SWELL
                       AIR SEA DIR/SP/G            HT/PER HT/PER/DIR
                 (UTC) (F)     (DEG/KT/KT) (MB)    (FT/S) (FT/S/D)
WINYAH BAY       1145   80     250/  2     1017.0R
LAKE MURRAY      NOT AVBL
ACE BASIN NERRS  1130   77        CALM     1017.0R
FORT PULASKI     1200   79 86  260/  3/  4 1017.5
SAPELO ISLAND    1200   78        CALM     1017.0

$$

ANZ835-935-AMZ111-154-330-350-352-354-370-450-454-472-221300-
...C-MAN AND BUOY OBSERVATIONS...

STATION/POSITION TIME  TEMP    WIND        PRES    WAVE   SWELL
                       AIR SEA DIR/SP/G            HT/PER HT/PER/DIR
                 (UTC) (F)     (DEG/KT/KT) (MB)    (FT/S) (FT/S/D)
BUOY 41004       1210   83 83  220/  8/ 10 1016.9
BUOY 41008       1150   80 82  260/  8/ 10 1016.8R   2/ 8   2/ 80/ 8
FOLLY BEACH CMAN 1200   83     230/  6/  8 1017.6R
CAPERS NEARSHORE 1208   82 83  240/ 10/ 14 1016.9R
FRIPP NEARSHORE  1208   83 84  260/  6/  8 1016.6R


STATION/POSITION TIME  TEMP    WIND        PRES    WAVE   SWELL
                       AIR SEA DIR/SP/G            HT/PER HT/PER/DIR
                 (UTC) (F)     (DEG/KT/KT) (MB)    (FT/S) (FT/S/D)
5E ST. MARYS GA  1200      82                N/A     2/ 8
FRYING PAN BUOY  1210   83 83  240/ 12/ 14 1017.0
BUOY 41025       1150   82 84  240/ 19/ 23 1015.4R   4/ 9   2/130/ 9
CAPE LOOKOUT NC  1200   82     240/  9/ 13 1016.1R
BUOY 41002       1150   83 83  210/ 14/ 16 1018.6R   4/10   3/130/10
BUOY 41010       1210   83 85  220/ 10/ 12 1018.9
ST AUGUSTINE FL  1200   78 80  230/  6/  7 1018.2R


$$




USA.gov is the U.S. government's official web portal to all federal, state and local government web resources and services.